Vertical_Velocity
-7 13 -4 -10 -4 -4 2 6 1 -8 -10 17 -3 -1 -5 -8 9 3 5 2 -0 -3 -5 2 -2 3 15 -0 -4 -4 -2 -3 -1 -4 -5 2 -7 -2 4 -2 7 -3 -1 -2
14 -2 -10 1 3 6 4 4 -9 -11 -4 16 0 -7 -5 0 -6 -5 -1 7 0 7 1 5 -2 -0 15 -4 -4 -4 -1 -4 -2 -4 -3 1 -5 -4 3 -2 6 -5 -2 -1
-1 -20 3 8 -1 9 -3 5 -3 6 -7 -5 6 4 2 -8 6 3 3 -1 -6 -6 -1 2 -1 2 9 -1 -6 -6 -1 -3 -2 -1 -1 5 6 0 6 -2 7 -4 -2 -2
-3 -11 4 4 0 11 6 -4 4 2 9 1 11 -15 -2 -3 -4 1 4 8 5 -4 2 3 -1 4 -3 -1 -2 -3 1 -1 -1 3 -3 -3 -2 -3 -5 -3 4 -3 -3 -2
-50 2 3 7 -19 4 -23 5 4 3 3 17 -15 17 -21 4 -4 -5 -1 4 3 -5 -2 0 -5 -5 -6 3 -5 -4 -1 1 -3 -4 0 -1 2 0 3 0 1 -1 -4 -1
-11 -9 14 -15 -7 1 -6 13 6 3 6 11 -15 20 -21 -2 -10 -1 4 1 -9 3 -3 4 3 3 -5 10 -1 -3 -2 -2 -2 -3 -0 -0 -7 4 -1 0 2 -1 -3 -3
-3 -10 -8 18 13 3 15 13 0 8 13 -17 -3 15 -24 -8 -5 -2 -3 -1 -12 26 -1 -5 -4 -1 -0 1 -0 -2 -3 -3 -3 -4 -2 0 -6 1 1 -4 -5 -4 -2 -4
6 -12 9 -18 3 -3 -6 6 -3 -6 -0 -14 1 -7 -57 -9 -5 5 -6 -8 13 -2 8 -7 -1 -1 -1 -0 -1 -2 -2 0 -1 -2 -1 -0 0 -5 -1 6 -3 -3 -5 -4
12 -18 -10 8 0 19 -31 10 -20 11 -1 14 -6 -21 8 -1 -2 1 2 1 4 1 1 -6 4 -7 2 -1 -6 -5 -2 0 2 -1 -4 -2 3 -2 -5 4 3 -3 -4 -1
-29 4 -4 -21 18 -17 4 -15 9 -0 7 0 -9 -4 -14 2 -8 -3 1 1 -1 12 7 3 2 -1 2 0 -0 1 0 -3 3 3 -2 -4 -2 -1 1 -1 5 -1 -4 0
6 26 -46 19 0 -2 -5 9 7 11 5 -2 -1 -24 -8 -3 -3 -1 -5 1 -0 -3 -1 -0 -2 1 -1 6 -1 -0 -2 -3 -2 5 0 -2 -5 -2 -2 -0 2 1 2 -3
-12 10 1 -10 -16 3 3 -3 -3 7 -21 -3 1 -35 -2 -0 -2 -2 -8 7 4 -6 -7 -5 -2 0 -4 2 2 -5 -1 -5 2 3 2 -2 -1 -2 -2 -2 1 2 -1 1
-16 -13 2 -20 -11 -4 9 -9 -1 -1 7 -9 9 -27 -2 0 -1 1 1 9 4 2 3 -0 4 1 -3 2 1 -2 -3 -2 -0 2 2 0 -1 -2 -1 -1 1 -1 2 -1
14 2 16 -1 -12 12 8 0 -1 3 8 -12 -12 -7 -1 -4 -1 0 -6 -3 5 1 0 -2 6 -1 -3 -2 0 2 -2 -1 -1 3 -1 -1 -1 0 0 1 -1 2 2 1
25 8 12 -6 -3 6 -0 0 -2 8 -13 11 -20 1 -10 -6 -3 -5 -1 2 4 1 7 4 4 -0 -1 -2 0 2 3 -3 -0 2 1 1 3 1 2 2 1 1 2 4
-5 -15 5 -9 -3 5 3 -3 1 -0 -0 4 4 -5 -5 -7 1 6 -7 3 4 -3 1 -0 -3 -2 -4 -4 -3 1 4 -1 -0 0 3 4 0 0 0 1 1 -0 3 4
10 1 5 -16 2 7 26 -19 -4 -4 -0 -4 4 -25 -2 -3 -1 -2 3 9 3 -3 -0 -3 -2 -3 1 1 -4 -2 -2 4 -2 1 2 4 3 -1 -1 2 3 3 3 5
2 5 4 -4 11 28 -46 -3 1 3 -6 0 5 -2 -4 -9 -14 6 2 -16 -16 26 6 8 -1 0 3 10 0 -1 -3 -0 0 1 -0 1 7 3 1 1 -0 4 3 0
5 3 -0 5 1 -19 3 -9 3 13 -28 -5 -0 -1 -3 -1 11 -4 -5 -27 -4 -4 12 0 -7 -5 -8 -1 10 4 4 -2 1 -0 2 2 -1 5 2 -1 1 2 3 2
8 3 8 3 6 -4 -30 -12 -3 9 -7 -5 4 -3 -2 5 10 -13 10 25 60 -59 9 -3 -1 -0 -4 -0 7 1 7 3 1 1 -1 3 5 3 1 4 1 0 1 0
6 8 -3 -1 0 -10 -11 -10 9 68 -44 -4 0 -5 0 0 -15 -1 0 12 -1 -2 -1 -2 -3 -5 -6 -3 6 6 7 3 -5 1 3 4 2 1 3 0 -2 -0 -0 0
3 1 -2 4 6 -11 -4 0 40 -24 -2 -3 1 -3 -1 4 7 0 3 2 -2 -2 -1 3 -2 -4 -3 5 7 3 6 5 -3 -3 -1 -1 -4 -3 -1 -2 -1 0 1 1
13 -15 -10 -7 -23 -10 9 5 2 4 -1 -5 5 4 3 6 3 -2 -2 -1 1 -4 -2 0 3 10 17 14 4 -1 1 -2 -4 -3 -2 -0 -2 -1 2 -2 -2 -2 -2 -2
-6 1 -3 11 -9 1 -3 -3 -1 6 -0 1 1 -5 9 -6 1 3 -1 -1 -3 8 3 -2 -3 -1 5 4 1 1 4 -2 2 1 -1 -0 1 -1 -3 0 -4 -3 -3 -3
2 3 -4 -1 -5 -7 -8 -4 8 15 6 -1 5 3 5 1 7 0 4 8 9 2 3 2 1 1 1 2 4 0 -1 6 -2 3 -1 -1 -1 -2 -1 3 5 -4 -4 -3
1 -3 -4 -7 -6 -6 -4 -6 0 -5 3 -0 -5 2 1 -8 2 2 5 2 -1 1 3 3 5 5 9 5 1 -1 -3 -4 -2 3 7 0 -1 -3 -0 5 5 -1 2 2
Height
1488 1489 1481 1482 1481 1478 1476 1475 1471 1462 1457 1459 1463 1466 1471 1469 1463 1465 1470 1476 1485 1491 1499 1505 1511 1515 1521 1521 1525 1530 1534 1537 1542 1546 1551 1555 1557 1562 1566 1569 1571 1573 1576 1578
1488 1483 1481 1479 1477 1475 1474 1473 1468 1458 1449 1450 1453 1462 1458 1454 1456 1463 1466 1467 1479 1485 1492 1500 1506 1511 1516 1516 1521 1526 1530 1533 1538 1542 1548 1553 1556 1560 1564 1567 1569 1570 1573 1575
1482 1477 1478 1480 1479 1477 1474 1472 1468 1466 1452 1449 1449 1456 1455 1452 1445 1450 1458 1464 1484 1482 1484 1493 1500 1506 1511 1512 1515 1521 1525 1529 1534 1539 1545 1551 1555 1558 1561 1564 1565 1566 1570 1572
1470 1469 1470 1475 1476 1476 1476 1465 1465 1464 1468 1475 1456 1474 1446 1441 1442 1441 1446 1455 1464 1475 1480 1488 1494 1500 1505 1507 1512 1517 1522 1525 1530 1536 1541 1545 1549 1552 1555 1559 1562 1563 1567 1569
1458 1464 1464 1467 1462 1467 1470 1470 1469 1471 1472 1472 1460 1466 1450 1443 1443 1434 1436 1444 1456 1462 1468 1476 1483 1491 1499 1504 1508 1513 1518 1522 1526 1531 1537 1541 1545 1549 1552 1556 1559 1560 1563 1566
1452 1457 1455 1452 1453 1454 1456 1461 1465 1470 1473 1485 1459 1467 1451 1445 1434 1425 1432 1437 1444 1457 1465 1475 1481 1489 1494 1500 1504 1508 1513 1517 1521 1526 1531 1536 1540 1545 1548 1552 1554 1557 1559 1562
1451 1454 1450 1449 1449 1445 1450 1460 1480 1485 1483 1472 1454 1465 1440 1433 1423 1422 1434 1434 1439 1448 1456 1467 1474 1480 1487 1493 1497 1502 1507 1511 1515 1519 1525 1530 1534 1539 1543 1546 1549 1552 1555 1556
1458 1460 1444 1442 1444 1449 1447 1450 1472 1480 1476 1458 1441 1458 1432 1422 1418 1418 1428 1433 1429 1447 1450 1458 1466 1473 1479 1485 1490 1495 1500 1505 1508 1512 1518 1524 1528 1533 1537 1540 1543 1546 1549 1551
1452 1446 1437 1433 1431 1436 1441 1450 1437 1457 1452 1457 1441 1435 1416 1411 1409 1410 1415 1425 1425 1434 1443 1450 1459 1466 1473 1478 1483 1488 1494 1500 1505 1507 1512 1518 1522 1526 1531 1536 1538 1540 1544 1547
1445 1447 1430 1428 1427 1422 1423 1428 1453 1448 1469 1466 1440 1433 1421 1414 1413 1405 1407 1411 1418 1426 1435 1444 1451 1458 1466 1472 1477 1484 1489 1494 1500 1502 1505 1510 1516 1520 1525 1530 1532 1534 1538 1542
1442 1442 1430 1427 1426 1424 1424 1423 1428 1434 1436 1450 1447 1429 1406 1403 1405 1417 1416 1406 1412 1419 1429 1437 1445 1452 1460 1467 1473 1477 1483 1488 1494 1498 1500 1504 1508 1513 1518 1522 1526 1528 1532 1536
1445 1439 1436 1425 1414 1410 1409 1413 1415 1438 1441 1425 1430 1416 1401 1398 1406 1410 1418 1408 1407 1413 1421 1432 1440 1447 1454 1461 1467 1470 1475 1481 1486 1491 1495 1497 1502 1506 1509 1514 1518 1522 1525 1530
1451 1442 1438 1426 1416 1404 1404 1399 1398 1407 1416 1426 1431 1405 1398 1398 1396 1406 1408 1397 1400 1406 1414 1424 1434 1441 1448 1455 1461 1464 1468 1473 1480 1485 1488 1491 1494 1498 1501 1505 1511 1515 1518 1522
1457 1450 1444 1437 1421 1419 1410 1395 1393 1395 1411 1411 1412 1400 1397 1393 1393 1402 1405 1403 1395 1401 1409 1418 1427 1435 1442 1450 1455 1459 1462 1467 1473 1478 1481 1483 1486 1490 1495 1499 1503 1508 1511 1514
1458 1446 1428 1419 1411 1410 1405 1388 1383 1384 1389 1396 1390 1392 1394 1387 1384 1386 1388 1390 1394 1398 1407 1413 1421 1429 1437 1445 1451 1456 1458 1462 1466 1472 1475 1477 1481 1486 1490 1493 1496 1501 1505 1507
1441 1438 1431 1417 1405 1396 1394 1386 1371 1368 1373 1376 1379 1384 1382 1381 1379 1379 1383 1389 1388 1393 1402 1409 1417 1426 1433 1439 1444 1449 1454 1457 1462 1466 1470 1474 1476 1480 1483 1487 1490 1494 1497 1501
1453 1445 1433 1413 1395 1389 1381 1374 1361 1363 1357 1363 1373 1373 1375 1377 1373 1374 1377 1383 1386 1388 1394 1403 1412 1420 1428 1433 1437 1442 1447 1453 1457 1461 1466 1470 1472 1474 1477 1481 1485 1487 1491 1495
1443 1444 1442 1424 1396 1379 1363 1358 1353 1351 1354 1355 1357 1361 1365 1366 1369 1371 1372 1384 1388 1385 1391 1398 1406 1415 1423 1429 1433 1437 1442 1447 1452 1456 1461 1465 1468 1470 1473 1476 1479 1483 1486 1489
1424 1434 1429 1416 1386 1373 1352 1344 1348 1350 1345 1343 1344 1348 1355 1358 1362 1363 1372 1385 1389 1395 1384 1393 1404 1413 1421 1427 1429 1432 1437 1442 1447 1452 1456 1461 1464 1467 1470 1472 1475 1478 1481 1483
1399 1411 1427 1410 1391 1367 1349 1339 1341 1337 1340 1333 1337 1340 1345 1350 1359 1355 1363 1370 1376 1400 1389 1395 1402 1410 1417 1424 1427 1428 1432 1437 1443 1448 1453 1457 1460 1463 1466 1468 1470 1473 1475 1478
1383 1389 1406 1405 1396 1373 1340 1335 1331 1339 1338 1327 1328 1332 1337 1342 1347 1353 1358 1365 1375 1385 1391 1397 1400 1409 1416 1421 1424 1426 1430 1433 1439 1445 1449 1453 1455 1459 1461 1464 1466 1468 1471 1473
1374 1376 1380 1386 1394 1384 1332 1324 1323 1319 1315 1318 1322 1325 1331 1337 1342 1349 1359 1366 1374 1382 1390 1397 1404 1411 1417 1421 1423 1425 1427 1429 1435 1441 1446 1449 1452 1455 1457 1459 1462 1464 1466 1468
1353 1348 1362 1362 1354 1335 1324 1329 1321 1316 1304 1319 1319 1321 1324 1333 1341 1351 1360 1370 1377 1386 1396 1402 1409 1414 1419 1420 1421 1422 1426 1429 1435 1440 1444 1447 1450 1452 1455 1457 1458 1459 1461 1462
1332 1338 1356 1368 1343 1344 1341 1332 1323 1323 1317 1320 1321 1318 1320 1329 1341 1352 1363 1371 1381 1392 1400 1407 1412 1416 1417 1419 1422 1424 1427 1432 1437 1441 1443 1445 1447 1449 1452 1454 1455 1456 1457 1458
1336 1340 1341 1350 1348 1353 1338 1338 1332 1320 1320 1324 1329 1330 1335 1339 1348 1358 1368 1376 1385 1396 1405 1411 1415 1418 1420 1422 1422 1424 1428 1434 1437 1440 1443 1445 1447 1448 1450 1452 1453 1453 1454 1454
1336 1332 1343 1342 1340 1347 1350 1347 1340 1337 1339 1336 1340 1343 1350 1357 1365 1371 1377 1384 1392 1401 1409 1414 1418 1420 1422 1423 1423 1425 1428 1432 1436 1438 1441 1442 1444 1446 1448 1449 1450 1451 1452 1452